Terminal Aerodrome Forecast
Issued by NWS Quad Cities IA IL

Home | Current Version | Previous Version | Text Only | Print | Product List | Glossary On
Versions: 1 2 3 4 5 6 7 8 9 10 11 12 13 14 15 16 17 18 19 20 21 22 23
000
FTUS43 KDVN 071214 AAB
TAFMLI
TAF AMD
KMLI 071214Z 0712/0812 01008KT 2SM HZ BKN021
      TEMPO 0712/0714 1 1/2SM HZ
     FM071400 02010KT 3SM HZ BKN025
     FM071700 02011KT P6SM BKN050
     FM072300 03005KT P6SM SKC=

USA.gov is the U.S. government's official web portal to all federal, state and local government web resources and services.